ZKMAF NZWN-NZWS

Flight info

Callsign ZKMAF
Flight time 1h 2m
Altitude 8000
Route NULKO Q235 BOLOX H463 NS H267 AKSEM
Aircraft K100/L-SBDGRY/S

Departure

Time 2026-04-23 06:24
Airport Wellington International Airport (NZWN)

Arrival

Time 2026-04-23 07:26
Airport Westport Airport (NZWS)
Time Latitude Longitude Altitude Speed Heading
2026-04-23 06:18 -41.32711 174.80495 23 ft 0 kts
2026-04-23 06:21 -41.32709 174.80496 23 ft 5 kts
2026-04-23 06:21 -41.32677 174.80568 24 ft 20 kts 93°
2026-04-23 06:21 -41.32685 174.80728 24 ft 23 kts 94°
2026-04-23 06:22 -41.32583 174.80824 28 ft 28 kts
2026-04-23 06:22 -41.32394 174.80837 33 ft 27 kts
2026-04-23 06:22 -41.32196 174.80850 37 ft 29 kts
2026-04-23 06:22 -41.32006 174.80862 37 ft 28 kts
2026-04-23 06:23 -41.31839 174.80873 38 ft 23 kts
2026-04-23 06:23 -41.31771 174.80765 35 ft 17 kts 240°
2026-04-23 06:23 -41.32020 174.80736 38 ft 70 kts 183°
2026-04-23 06:23 -41.32639 174.80684 186 ft 97 kts 181°
2026-04-23 06:24 -41.33266 174.80633 583 ft 90 kts 191°
2026-04-23 06:24 -41.33872 174.80324 899 ft 99 kts 202°
2026-04-23 06:24 -41.34551 174.79944 1233 ft 116 kts 202°
2026-04-23 06:24 -41.35329 174.79504 1556 ft 125 kts 202°
2026-04-23 06:25 -41.36141 174.79050 1864 ft 131 kts 202°
2026-04-23 06:25 -41.36995 174.78572 2172 ft 134 kts 202°
2026-04-23 06:25 -41.37791 174.77948 2471 ft 135 kts 217°
2026-04-23 06:25 -41.38498 174.77112 2773 ft 136 kts 225°
2026-04-23 06:26 -41.38911 174.76531 2965 ft 136 kts 227°
2026-04-23 06:26 -41.39527 174.75572 3265 ft 136 kts 230°
2026-04-23 06:26 -41.40123 174.74583 3539 ft 138 kts 231°
2026-04-23 06:26 -41.40709 174.73583 3788 ft 138 kts 232°
2026-04-23 06:27 -41.41288 174.72578 4035 ft 136 kts 232°
2026-04-23 06:27 -41.41866 174.71570 4286 ft 136 kts 232°
2026-04-23 06:27 -41.42433 174.70583 4533 ft 135 kts 232°
2026-04-23 06:27 -41.43002 174.69591 4782 ft 135 kts 232°
2026-04-23 06:28 -41.43572 174.68596 5027 ft 134 kts 232°
2026-04-23 06:28 -41.44139 174.67607 5211 ft 135 kts 232°
2026-04-23 06:28 -41.44712 174.66608 5387 ft 136 kts 232°
2026-04-23 06:28 -41.45289 174.65601 5563 ft 137 kts 232°
2026-04-23 06:29 -41.45866 174.64592 5738 ft 137 kts 232°
2026-04-23 06:29 -41.46443 174.63585 5913 ft 137 kts 232°
2026-04-23 06:29 -41.47023 174.62570 6088 ft 137 kts 232°
2026-04-23 06:29 -41.47601 174.61560 6263 ft 137 kts 232°
2026-04-23 06:30 -41.48185 174.60538 6439 ft 137 kts 232°
2026-04-23 06:30 -41.48765 174.59523 6615 ft 137 kts 232°
2026-04-23 06:30 -41.49338 174.58521 6788 ft 137 kts 232°
2026-04-23 06:30 -41.49907 174.57524 6961 ft 136 kts 232°
2026-04-23 06:31 -41.50476 174.56512 7135 ft 136 kts 233°
2026-04-23 06:31 -41.51046 174.55490 7311 ft 135 kts 233°
2026-04-23 06:31 -41.51615 174.54489 7485 ft 135 kts 231°
2026-04-23 06:31 -41.52190 174.53502 7660 ft 135 kts 232°
2026-04-23 06:32 -41.52767 174.52499 7788 ft 141 kts 232°
2026-04-23 06:32 -41.53278 174.51341 7790 ft 150 kts 260°
2026-04-23 06:32 -41.53352 174.49937 7796 ft 154 kts 270°
2026-04-23 06:32 -41.53305 174.48486 7791 ft 157 kts 274°
2026-04-23 06:33 -41.53210 174.47023 7790 ft 158 kts 275°
2026-04-23 06:33 -41.53122 174.45886 7789 ft 158 kts 276°
2026-04-23 06:33 -41.53072 174.45258 7789 ft 158 kts 276°
2026-04-23 06:33 -41.52955 174.43811 7964 ft 150 kts 276°
2026-04-23 06:34 -41.52836 174.42412 8025 ft 156 kts 276°
2026-04-23 06:34 -41.52709 174.40929 8009 ft 162 kts 276°
2026-04-23 06:34 -41.52579 174.39410 8008 ft 164 kts 276°
2026-04-23 06:34 -41.52450 174.37900 8007 ft 165 kts 276°
2026-04-23 06:35 -41.52318 174.36383 8007 ft 165 kts 277°
2026-04-23 06:35 -41.52185 174.34850 8006 ft 165 kts 277°
2026-04-23 06:35 -41.52054 174.33336 8005 ft 165 kts 277°
2026-04-23 06:35 -41.51920 174.31802 8005 ft 165 kts 277°
2026-04-23 06:36 -41.51789 174.30281 8005 ft 165 kts 277°
2026-04-23 06:36 -41.51656 174.28754 8005 ft 165 kts 277°
2026-04-23 06:36 -41.51524 174.27241 8005 ft 165 kts 277°
2026-04-23 06:36 -41.51391 174.25708 8005 ft 165 kts 277°
2026-04-23 06:37 -41.51259 174.24199 8005 ft 165 kts 277°
2026-04-23 06:37 -41.51113 174.22670 8005 ft 165 kts 278°
2026-04-23 06:37 -41.50966 174.21138 8005 ft 165 kts 278°
2026-04-23 06:37 -41.50821 174.19626 8005 ft 165 kts 278°
2026-04-23 06:38 -41.50676 174.18111 8005 ft 165 kts 278°
2026-04-23 06:38 -41.50530 174.16582 8005 ft 165 kts 278°
2026-04-23 06:38 -41.50383 174.15045 8005 ft 165 kts 278°
2026-04-23 06:38 -41.50238 174.13528 8005 ft 165 kts 278°
2026-04-23 06:39 -41.50093 174.12015 8006 ft 165 kts 278°
2026-04-23 06:39 -41.49978 174.10486 8005 ft 165 kts 276°
2026-04-23 06:39 -41.49863 174.08968 8005 ft 165 kts 276°
2026-04-23 06:39 -41.49744 174.07448 8005 ft 165 kts 276°
2026-04-23 06:40 -41.49620 174.05925 8005 ft 165 kts 277°
2026-04-23 06:40 -41.49490 174.04393 8005 ft 165 kts 277°
2026-04-23 06:40 -41.49359 174.02878 8005 ft 165 kts 277°
2026-04-23 06:40 -41.49226 174.01349 8005 ft 165 kts 277°
2026-04-23 06:41 -41.49092 173.99828 8006 ft 165 kts 277°
2026-04-23 06:41 -41.48956 173.98299 8006 ft 165 kts 277°
2026-04-23 06:41 -41.48819 173.96770 8006 ft 165 kts 277°
2026-04-23 06:41 -41.48683 173.95254 8006 ft 165 kts 277°
2026-04-23 06:42 -41.48547 173.93735 8006 ft 165 kts 277°
2026-04-23 06:42 -41.48410 173.92207 8006 ft 165 kts 277°
2026-04-23 06:42 -41.48272 173.90683 8006 ft 165 kts 277°
2026-04-23 06:42 -41.48142 173.89160 8006 ft 165 kts 277°
2026-04-23 06:43 -41.48005 173.87637 8006 ft 165 kts 277°
2026-04-23 06:43 -41.47863 173.86101 8006 ft 165 kts 277°
2026-04-23 06:43 -41.47724 173.84592 8006 ft 165 kts 277°
2026-04-23 06:43 -41.47580 173.83078 8006 ft 165 kts 278°
2026-04-23 06:44 -41.47428 173.81546 8006 ft 165 kts 278°
2026-04-23 06:44 -41.47277 173.80023 8006 ft 165 kts 278°
2026-04-23 06:44 -41.47125 173.78491 8006 ft 165 kts 278°
2026-04-23 06:44 -41.46988 173.76976 8006 ft 165 kts 276°
2026-04-23 06:45 -41.46862 173.75462 8006 ft 165 kts 277°
2026-04-23 06:45 -41.46732 173.73933 8006 ft 165 kts 277°
2026-04-23 06:45 -41.46598 173.72412 8006 ft 165 kts 277°
2026-04-23 06:45 -41.46462 173.70894 8006 ft 165 kts 277°
2026-04-23 06:46 -41.46238 173.69394 8002 ft 165 kts 294°
2026-04-23 06:46 -41.45822 173.68007 8007 ft 164 kts 294°
2026-04-23 06:46 -41.45374 173.66588 8006 ft 164 kts 294°
2026-04-23 06:46 -41.44922 173.65186 8006 ft 164 kts 294°
2026-04-23 06:47 -41.44462 173.63779 8006 ft 164 kts 295°
2026-04-23 06:47 -41.44003 173.62383 8006 ft 164 kts 295°
2026-04-23 06:47 -41.43544 173.60994 8006 ft 164 kts 295°
2026-04-23 06:47 -41.43077 173.59587 8006 ft 164 kts 295°
2026-04-23 06:48 -41.42614 173.58205 8006 ft 164 kts 295°
2026-04-23 06:48 -41.42144 173.56804 8006 ft 164 kts 295°
2026-04-23 06:48 -41.41676 173.55403 8006 ft 164 kts 295°
2026-04-23 06:48 -41.41215 173.54024 8006 ft 164 kts 295°
2026-04-23 06:49 -41.40747 173.52628 8006 ft 164 kts 295°
2026-04-23 06:49 -41.40281 173.51233 8006 ft 164 kts 295°
2026-04-23 06:49 -41.39816 173.49846 8006 ft 164 kts 295°
2026-04-23 06:49 -41.39349 173.48451 8006 ft 164 kts 295°
2026-04-23 06:50 -41.38882 173.47057 8006 ft 164 kts 295°
2026-04-23 06:50 -41.38421 173.45677 8006 ft 164 kts 295°
2026-04-23 06:50 -41.37954 173.44282 8006 ft 164 kts 295°
2026-04-23 06:50 -41.37489 173.42891 8006 ft 164 kts 295°
2026-04-23 06:51 -41.37022 173.41496 8006 ft 164 kts 295°
2026-04-23 06:51 -41.36550 173.40094 8006 ft 164 kts 295°
2026-04-23 06:51 -41.36095 173.38731 8005 ft 162 kts 294°
2026-04-23 06:51 -41.35635 173.37349 8007 ft 163 kts 295°
2026-04-23 06:52 -41.35169 173.35953 8007 ft 164 kts 295°
2026-04-23 06:52 -41.34701 173.34555 8006 ft 164 kts 295°
2026-04-23 06:52 -41.34237 173.33174 8005 ft 164 kts 295°
2026-04-23 06:52 -41.33770 173.31784 8005 ft 164 kts 295°
2026-04-23 06:53 -41.33305 173.30403 8005 ft 164 kts 295°
2026-04-23 06:53 -41.32834 173.29004 8005 ft 164 kts 295°
2026-04-23 06:53 -41.32366 173.27615 8005 ft 164 kts 295°
2026-04-23 06:53 -41.31896 173.26222 8005 ft 164 kts 295°
2026-04-23 06:54 -41.31425 173.24828 8005 ft 164 kts 295°
2026-04-23 06:54 -41.30956 173.23441 8005 ft 164 kts 295°
2026-04-23 06:54 -41.30610 173.22009 8001 ft 165 kts 269°
2026-04-23 06:54 -41.30843 173.20519 8010 ft 165 kts 255°
2026-04-23 06:55 -41.31170 173.19064 8006 ft 165 kts 252°
2026-04-23 06:55 -41.31529 173.17604 8005 ft 165 kts 251°
2026-04-23 06:55 -41.31903 173.16154 8005 ft 165 kts 250°
2026-04-23 06:55 -41.32281 173.14725 8005 ft 165 kts 250°
2026-04-23 06:56 -41.32670 173.13275 8005 ft 165 kts 249°
2026-04-23 06:56 -41.33061 173.11836 8005 ft 165 kts 249°
2026-04-23 06:56 -41.33454 173.10394 8005 ft 165 kts 249°
2026-04-23 06:56 -41.33846 173.08964 8005 ft 165 kts 249°
2026-04-23 06:57 -41.34239 173.07529 8005 ft 165 kts 249°
2026-04-23 06:57 -41.34635 173.06085 8005 ft 165 kts 249°
2026-04-23 06:57 -41.35029 173.04651 8006 ft 165 kts 249°
2026-04-23 06:57 -41.35421 173.03214 8005 ft 165 kts 249°
2026-04-23 06:58 -41.35812 173.01776 8005 ft 165 kts 249°
2026-04-23 06:58 -41.36205 173.00336 8005 ft 165 kts 249°
2026-04-23 06:58 -41.36597 172.98904 8005 ft 165 kts 249°
2026-04-23 06:58 -41.36988 172.97475 8005 ft 165 kts 249°
2026-04-23 06:59 -41.37381 172.96039 8005 ft 165 kts 249°
2026-04-23 06:59 -41.37776 172.94595 8005 ft 164 kts 249°
2026-04-23 06:59 -41.38163 172.93181 8005 ft 164 kts 249°
2026-04-23 06:59 -41.38558 172.91736 8005 ft 164 kts 249°
2026-04-23 07:00 -41.38945 172.90318 8005 ft 164 kts 249°
2026-04-23 07:00 -41.39336 172.88887 8005 ft 164 kts 249°
2026-04-23 07:00 -41.39727 172.87454 8006 ft 164 kts 249°
2026-04-23 07:00 -41.40120 172.86018 8005 ft 164 kts 250°
2026-04-23 07:01 -41.40509 172.84590 8005 ft 164 kts 250°
2026-04-23 07:01 -41.40897 172.83165 8005 ft 163 kts 250°
2026-04-23 07:01 -41.41282 172.81755 8006 ft 163 kts 250°
2026-04-23 07:01 -41.41671 172.80324 8006 ft 163 kts 250°
2026-04-23 07:02 -41.42056 172.78912 8006 ft 163 kts 250°
2026-04-23 07:02 -41.42446 172.77475 8005 ft 163 kts 250°
2026-04-23 07:02 -41.42833 172.76051 8006 ft 163 kts 250°
2026-04-23 07:02 -41.43218 172.74638 8006 ft 163 kts 250°
2026-04-23 07:03 -41.43606 172.73207 8006 ft 163 kts 250°
2026-04-23 07:03 -41.43992 172.71783 8006 ft 163 kts 250°
2026-04-23 07:03 -41.44376 172.70367 8006 ft 163 kts 250°
2026-04-23 07:03 -41.44761 172.68948 8006 ft 163 kts 250°
2026-04-23 07:04 -41.45148 172.67520 8006 ft 163 kts 250°
2026-04-23 07:04 -41.45538 172.66081 8006 ft 163 kts 250°
2026-04-23 07:04 -41.45922 172.64661 8006 ft 163 kts 250°
2026-04-23 07:04 -41.46311 172.63231 8006 ft 163 kts 250°
2026-04-23 07:05 -41.46698 172.61812 8006 ft 164 kts 250°
2026-04-23 07:05 -41.47085 172.60387 8006 ft 164 kts 250°
2026-04-23 07:05 -41.47479 172.58940 8006 ft 164 kts 250°
2026-04-23 07:05 -41.47869 172.57506 8006 ft 164 kts 250°
2026-04-23 07:06 -41.48254 172.56090 8006 ft 164 kts 250°
2026-04-23 07:06 -41.48642 172.54656 8006 ft 164 kts 250°
2026-04-23 07:06 -41.49030 172.53217 8006 ft 164 kts 250°
2026-04-23 07:06 -41.49421 172.51767 8006 ft 164 kts 250°
2026-04-23 07:07 -41.49804 172.50343 8006 ft 164 kts 250°
2026-04-23 07:07 -41.50189 172.48910 8006 ft 164 kts 250°
2026-04-23 07:07 -41.50579 172.47458 8006 ft 164 kts 250°
2026-04-23 07:07 -41.50961 172.46034 8006 ft 164 kts 250°
2026-04-23 07:08 -41.51348 172.44594 8006 ft 164 kts 250°
2026-04-23 07:08 -41.51733 172.43159 8006 ft 164 kts 250°
2026-04-23 07:08 -41.52117 172.41725 8006 ft 164 kts 250°
2026-04-23 07:08 -41.52501 172.40294 8006 ft 164 kts 250°
2026-04-23 07:09 -41.52884 172.38864 8006 ft 164 kts 250°
2026-04-23 07:09 -41.53271 172.37418 8006 ft 164 kts 250°
2026-04-23 07:09 -41.53657 172.35974 8006 ft 164 kts 250°
2026-04-23 07:09 -41.54043 172.34529 8006 ft 164 kts 250°
2026-04-23 07:10 -41.54425 172.33099 8005 ft 164 kts 250°
2026-04-23 07:10 -41.54808 172.31665 8005 ft 164 kts 250°
2026-04-23 07:10 -41.55190 172.30235 8005 ft 164 kts 250°
2026-04-23 07:10 -41.55571 172.28804 8005 ft 164 kts 250°
2026-04-23 07:11 -41.55954 172.27368 8005 ft 164 kts 250°
2026-04-23 07:11 -41.56336 172.25934 8005 ft 164 kts 250°
2026-04-23 07:11 -41.56718 172.24497 8005 ft 164 kts 250°
2026-04-23 07:12 -41.57718 172.21791 8007 ft 163 kts 241°
2026-04-23 07:12 -41.58067 172.20352 7976 ft 165 kts 270°
2026-04-23 07:12 -41.58098 172.18808 7815 ft 165 kts 270°
2026-04-23 07:12 -41.58123 172.17314 7632 ft 159 kts 269°
2026-04-23 07:13 -41.58152 172.15837 7382 ft 159 kts 269°
2026-04-23 07:13 -41.58180 172.14360 7129 ft 160 kts 269°
2026-04-23 07:13 -41.58207 172.12877 6896 ft 159 kts 269°
2026-04-23 07:13 -41.58233 172.11406 6727 ft 156 kts 269°
2026-04-23 07:14 -41.58259 172.09969 6619 ft 155 kts 269°
2026-04-23 07:14 -41.58286 172.08537 6511 ft 155 kts 269°
2026-04-23 07:14 -41.58315 172.07089 6378 ft 156 kts 269°
2026-04-23 07:14 -41.58343 172.05669 6218 ft 151 kts 269°
2026-04-23 07:15 -41.58371 172.04295 6013 ft 144 kts 269°
2026-04-23 07:15 -41.58397 172.02977 5803 ft 141 kts 269°
2026-04-23 07:15 -41.58422 172.01669 5605 ft 142 kts 269°
2026-04-23 07:15 -41.58446 172.00337 5437 ft 143 kts 269°
2026-04-23 07:16 -41.58470 171.99008 5297 ft 144 kts 269°
2026-04-23 07:16 -41.58493 171.97658 5192 ft 146 kts 269°
2026-04-23 07:16 -41.58516 171.96303 5085 ft 147 kts 269°
2026-04-23 07:16 -41.58539 171.94934 4937 ft 147 kts 269°
2026-04-23 07:17 -41.58564 171.93636 4768 ft 133 kts 269°
2026-04-23 07:17 -41.58587 171.92415 4609 ft 133 kts 269°
2026-04-23 07:17 -41.58608 171.91191 4450 ft 130 kts 269°
2026-04-23 07:17 -41.58629 171.89984 4291 ft 130 kts 270°
2026-04-23 07:18 -41.58665 171.88776 4102 ft 131 kts 259°
2026-04-23 07:18 -41.59043 171.87648 3874 ft 134 kts 241°
2026-04-23 07:18 -41.59517 171.86581 3680 ft 136 kts 237°
2026-04-23 07:18 -41.60030 171.85500 3524 ft 138 kts 236°
2026-04-23 07:19 -41.60543 171.84450 3428 ft 131 kts 236°
2026-04-23 07:19 -41.61034 171.83450 3394 ft 125 kts 236°
2026-04-23 07:19 -41.61512 171.82480 3199 ft 125 kts 235°
2026-04-23 07:19 -41.61982 171.81535 2980 ft 119 kts 235°
2026-04-23 07:20 -41.62434 171.80626 2848 ft 115 kts 235°
2026-04-23 07:20 -41.62880 171.79727 2800 ft 116 kts 235°
2026-04-23 07:20 -41.63330 171.78821 2732 ft 117 kts 235°
2026-04-23 07:20 -41.63784 171.77905 2634 ft 116 kts 235°
2026-04-23 07:21 -41.64221 171.77029 2521 ft 114 kts 235°
2026-04-23 07:21 -41.64661 171.76143 2448 ft 112 kts 235°
2026-04-23 07:21 -41.65092 171.75276 2380 ft 111 kts 235°
2026-04-23 07:21 -41.65516 171.74420 2313 ft 111 kts 235°
2026-04-23 07:22 -41.65945 171.73555 2246 ft 111 kts 235°
2026-04-23 07:22 -41.66378 171.72681 2180 ft 111 kts 235°
2026-04-23 07:22 -41.66823 171.71780 2171 ft 125 kts 235°
2026-04-23 07:22 -41.67321 171.70766 2103 ft 134 kts 236°
2026-04-23 07:23 -41.67841 171.69714 1946 ft 132 kts 235°
2026-04-23 07:23 -41.68344 171.68709 1780 ft 127 kts 235°
2026-04-23 07:23 -41.68836 171.67729 1619 ft 126 kts 235°
2026-04-23 07:23 -41.69330 171.66742 1454 ft 127 kts 235°
2026-04-23 07:24 -41.69816 171.65765 1290 ft 127 kts 235°
2026-04-23 07:24 -41.70305 171.64781 1123 ft 127 kts 235°
2026-04-23 07:24 -41.70793 171.63796 955 ft 127 kts 235°
2026-04-23 07:24 -41.71279 171.62814 788 ft 127 kts 235°
2026-04-23 07:25 -41.71757 171.61847 660 ft 100 kts 236°
2026-04-23 07:25 -41.72097 171.61159 523 ft 82 kts 235°
2026-04-23 07:25 -41.72400 171.60547 401 ft 76 kts 234°
2026-04-23 07:25 -41.72674 171.59984 287 ft 69 kts 239°
2026-04-23 07:26 -41.72924 171.59436 206 ft 67 kts 233°
2026-04-23 07:26 -41.73194 171.58913 140 ft 69 kts 232°
2026-04-23 07:26 -41.73456 171.58405 20 ft 61 kts 235°
2026-04-23 07:26 -41.73659 171.58000 18 ft 42 kts 237°
2026-04-23 07:27 -41.73786 171.57739 18 ft 16 kts 232°
2026-04-23 07:27 -41.73888 171.57800 18 ft 18 kts 142°
2026-04-23 07:27 -41.73950 171.57877 18 ft 0 kts 117°
2026-04-23 07:27 -41.73949 171.57877 18 ft 0 kts 117°